• In Uzbekistan
  • List of Countries
  • For 7 days
  • Water Temperature
  • Satellite Maps
  • Weather Map
  • Weather Widgets
  • user-avatar
    Login

    Hourly Weather Elbasan

    Today, 21 October, Sunday

    Time Temperature Precipitation Wind Pressure Humidity
    00:00 +15°C° 0 mm 2 mps 737 mmHg 75%
    01:00 +15°C° 0 mm 2 mps 737 mmHg 75%
    02:00 +14°C° 0 mm 2 mps 737 mmHg 75%
    03:00 +14°C° 0 mm 2 mps 736 mmHg 75%
    04:00 +14°C° 0 mm 2 mps 736 mmHg 75%
    05:00 +14°C° 0 mm 2 mps 736 mmHg 74%
    06:00 +15°C° 0 mm 2 mps 736 mmHg 72%
    07:00 +16°C° 0 mm 2 mps 736 mmHg 68%
    08:00 +17°C° 0 mm 2 mps 736 mmHg 62%
    09:00 +19°C° 0 mm 2 mps 736 mmHg 56%
    10:00 +20°C° 0 mm 2 mps 736 mmHg 50%
    11:00 +21°C° 0.1 mm 2 mps 736 mmHg 49%
    12:00 +21°C° 0.1 mm 2 mps 735 mmHg 48%
    13:00 +23°C° 0.1 mm 2 mps 735 mmHg 47%
    14:00 +21°C° 0.3 mm 2 mps 735 mmHg 50%
    15:00 +20°C° 0.3 mm 2 mps 735 mmHg 53%
    16:00 +20°C° 0.3 mm 2 mps 735 mmHg 57%
    17:00 +18°C° 0.2 mm 2 mps 735 mmHg 61%
    18:00 +17°C° 0.2 mm 2 mps 735 mmHg 66%
    19:00 +16°C° 0.2 mm 2 mps 735 mmHg 70%
    20:00 +16°C° 0.2 mm 2 mps 735 mmHg 72%
    21:00 +15°C° 0.2 mm 2 mps 736 mmHg 74%
    22:00 +15°C° 0.2 mm 2 mps 736 mmHg 76%
    23:00 +15°C° 0.2 mm 2 mps 736 mmHg 76%

    Tomorrow, 22 October, Monday

    Time Temperature Precipitation Wind Pressure Humidity
    00:00 +14°C° 0.2 mm 2 mps 736 mmHg 77%
    01:00 +13°C° 0.2 mm 3 mps 736 mmHg 78%
    02:00 +13°C° 0.2 mm 3 mps 736 mmHg 79%
    03:00 +12°C° 0.2 mm 3 mps 736 mmHg 79%
    04:00 +12°C° 0.2 mm 3 mps 735 mmHg 80%
    05:00 +12°C° 0 mm 3 mps 736 mmHg 79%
    06:00 +13°C° 0 mm 3 mps 736 mmHg 78%
    07:00 +13°C° 0 mm 3 mps 736 mmHg 77%
    08:00 +16°C° 0 mm 3 mps 736 mmHg 70%
    09:00 +17°C° 0 mm 3 mps 736 mmHg 63%
    10:00 +19°C° 0 mm 3 mps 736 mmHg 56%
    11:00 +20°C° 0 mm 3 mps 736 mmHg 54%
    12:00 +20°C° 0 mm 3 mps 735 mmHg 52%
    13:00 +20°C° 0 mm 3 mps 735 mmHg 50%
    14:00 +20°C° 0.1 mm 3 mps 735 mmHg 53%
    15:00 +19°C° 0.1 mm 3 mps 735 mmHg 57%
    16:00 +18°C° 0.1 mm 3 mps 735 mmHg 60%
    17:00 +17°C° 0.5 mm 2 mps 735 mmHg 65%
    18:00 +16°C° 0.5 mm 2 mps 735 mmHg 71%
    19:00 +15°C° 0.5 mm 2 mps 735 mmHg 76%
    20:00 +15°C° 0.3 mm 2 mps 735 mmHg 77%
    21:00 +15°C° 0.3 mm 2 mps 735 mmHg 78%
    22:00 +15°C° 0.3 mm 2 mps 735 mmHg 78%
    23:00 +14°C° 0.1 mm 3 mps 735 mmHg 78%

    Day after tomorrow, 23 October, Tuesday

    Time Temperature Precipitation Wind Pressure Humidity
    00:00 +14°C° 0.1 mm 3 mps 735 mmHg 78%
    01:00 +13°C° 0.1 mm 3 mps 735 mmHg 79%
    02:00 +13°C° 0 mm 3 mps 735 mmHg 79%
    03:00 +13°C° 0 mm 3 mps 735 mmHg 79%
    04:00 +13°C° 0 mm 3 mps 734 mmHg 79%
    05:00 +13°C° 0 mm 3 mps 735 mmHg 78%
    06:00 +13°C° 0 mm 3 mps 735 mmHg 76%
    07:00 +13°C° 0 mm 3 mps 735 mmHg 75%
    08:00 +16°C° 0 mm 3 mps 735 mmHg 68%
    09:00 +17°C° 0 mm 4 mps 735 mmHg 61%
    10:00 +19°C° 0 mm 4 mps 736 mmHg 53%
    11:00 +19°C° 0 mm 4 mps 735 mmHg 51%
    12:00 +20°C° 0 mm 3 mps 735 mmHg 49%
    13:00 +21°C° 0 mm 3 mps 735 mmHg 47%
    14:00 +20°C° 0 mm 3 mps 735 mmHg 48%
    15:00 +20°C° 0 mm 3 mps 734 mmHg 50%
    16:00 +19°C° 0 mm 3 mps 734 mmHg 52%
    17:00 +18°C° 0 mm 3 mps 734 mmHg 56%
    18:00 +16°C° 0 mm 3 mps 735 mmHg 61%
    19:00 +14°C° 0 mm 3 mps 735 mmHg 66%
    20:00 +14°C° 0 mm 2 mps 735 mmHg 68%
    21:00 +14°C° 0 mm 2 mps 735 mmHg 70%
    22:00 +13°C° 0 mm 2 mps 735 mmHg 72%
    23:00 +13°C° 0 mm 2 mps 735 mmHg 73%

    24 October, Wednesday

    Time Temperature Precipitation Wind Pressure Humidity
    00:00 +13°C° 0 mm 2 mps 734 mmHg 75%
    01:00 +12°C° 0 mm 2 mps 734 mmHg 76%
    02:00 +12°C° 0 mm 2 mps 734 mmHg 76%
    03:00 +12°C° 0 mm 2 mps 733 mmHg 77%
    04:00 +12°C° 0 mm 2 mps 733 mmHg 77%
    05:00 +12°C° 0 mm 2 mps 733 mmHg 76%
    06:00 +12°C° 0 mm 1 mps 733 mmHg 74%
    07:00 +13°C° 0 mm 1 mps 733 mmHg 72%
    08:00 +15°C° 0 mm 2 mps 733 mmHg 63%
    09:00 +17°C° 0 mm 2 mps 732 mmHg 54%
    10:00 +19°C° 0 mm 2 mps 732 mmHg 44%
    11:00 +20°C° 0 mm 3 mps 732 mmHg 42%
    12:00 +20°C° 0 mm 3 mps 731 mmHg 40%
    13:00 +21°C° 0 mm 4 mps 730 mmHg 38%
    14:00 +20°C° 0 mm 4 mps 730 mmHg 42%
    15:00 +20°C° 0 mm 4 mps 730 mmHg 46%
    16:00 +19°C° 0 mm 4 mps 730 mmHg 50%
    17:00 +17°C° 0 mm 3 mps 730 mmHg 56%
    18:00 +16°C° 0 mm 3 mps 730 mmHg 63%
    19:00 +14°C° 0 mm 2 mps 731 mmHg 70%
    20:00 +14°C° 0 mm 2 mps 731 mmHg 71%
    21:00 +14°C° 0 mm 2 mps 732 mmHg 73%
    22:00 +14°C° 0 mm 2 mps 732 mmHg 74%
    23:00 +13°C° 0 mm 2 mps 732 mmHg 78%

    25 October, Thursday

    Time Temperature Precipitation Wind Pressure Humidity
    00:00 +13°C° 0 mm 2 mps 733 mmHg 81%
    01:00 +12°C° 0 mm 2 mps 733 mmHg 84%
    02:00 +11°C° 0 mm 3 mps 733 mmHg 82%
    03:00 +10°C° 0 mm 3 mps 733 mmHg 80%
    04:00 +10°C° 0 mm 4 mps 734 mmHg 79%
    05:00 +10°C° 0 mm 3 mps 734 mmHg 75%
    06:00 +9°C° 0 mm 3 mps 735 mmHg 71%
    07:00 +9°C° 0 mm 3 mps 735 mmHg 67%
    08:00 +11°C° 0 mm 3 mps 736 mmHg 55%
    09:00 +13°C° 0 mm 3 mps 736 mmHg 42%
    10:00 +16°C° 0 mm 3 mps 737 mmHg 30%
    11:00 +17°C° 0 mm 3 mps 736 mmHg 28%
    12:00 +18°C° 0 mm 3 mps 736 mmHg 26%
    13:00 +18°C° 0 mm 3 mps 736 mmHg 23%
    14:00 +18°C° 0 mm 3 mps 736 mmHg 26%
    15:00 +17°C° 0 mm 3 mps 736 mmHg 29%
    16:00 +17°C° 0 mm 3 mps 736 mmHg 32%
    17:00 +14°C° 0 mm 3 mps 736 mmHg 36%
    18:00 +13°C° 0 mm 2 mps 737 mmHg 40%
    19:00 +12°C° 0 mm 2 mps 737 mmHg 44%
    20:00 +12°C° 0 mm 1 mps 737 mmHg 44%
    21:00 +11°C° 0 mm 1 mps 737 mmHg 45%
    22:00 +11°C° 0 mm 1 mps 738 mmHg 45%
    23:00 +11°C° 0 mm 1 mps 738 mmHg 45%

    26 October, Friday

    Time Temperature Precipitation Wind Pressure Humidity
    00:00 +11°C° 0 mm 1 mps 738 mmHg 45%
    01:00 +11°C° 0 mm 1 mps 738 mmHg 46%
    02:00 +11°C° 0 mm 1 mps 738 mmHg 46%
    03:00 +11°C° 0 mm 1 mps 737 mmHg 46%
    04:00 +11°C° 0 mm 1 mps 737 mmHg 46%
    05:00 +11°C° 0 mm 1 mps 738 mmHg 46%
    06:00 +12°C° 0 mm 1 mps 738 mmHg 46%
    07:00 +12°C° 0 mm 1 mps 738 mmHg 45%
    08:00 +15°C° 0 mm 2 mps 738 mmHg 41%
    09:00 +17°C° 0 mm 2 mps 738 mmHg 37%
    10:00 +20°C° 0 mm 2 mps 738 mmHg 33%
    11:00 +21°C° 0 mm 2 mps 738 mmHg 33%
    12:00 +21°C° 0 mm 2 mps 738 mmHg 33%
    13:00 +22°C° 0 mm 3 mps 738 mmHg 34%
    14:00 +21°C° 0 mm 2 mps 737 mmHg 37%
    15:00 +20°C° 0 mm 2 mps 737 mmHg 41%
    16:00 +19°C° 0 mm 2 mps 737 mmHg 44%
    17:00 +18°C° 0 mm 2 mps 737 mmHg 48%
    18:00 +16°C° 0 mm 2 mps 738 mmHg 53%
    19:00 +14°C° 0 mm 2 mps 738 mmHg 57%
    20:00 +14°C° 0 mm 2 mps 738 mmHg 58%
    21:00 +14°C° 0 mm 2 mps 738 mmHg 59%
    22:00 +13°C° 0 mm 2 mps 738 mmHg 60%
    23:00 +13°C° 0 mm 2 mps 738 mmHg 62%
    Show more